TimePDT,TemperatureF,Dew PointF,Humidity,Sea Level PressureIn,VisibilityMPH,Wind Direction,Wind SpeedMPH,Gust SpeedMPH,PrecipitationIn,Events,Conditions,WindDirDegrees,DateUTC
12:53 AM,24.1,23.0,96,30.41,10.0,Calm,Calm,-,N/A,,Clear,0,2013-05-01 07:53:00
1:53 AM,21.9,21.0,96,30.43,10.0,Calm,Calm,-,N/A,,Clear,0,2013-05-01 08:53:00
2:53 AM,21.0,19.0,92,30.45,10.0,Calm,Calm,-,N/A,,Clear,0,2013-05-01 09:53:00
3:53 AM,18.0,15.1,88,30.46,10.0,Calm,Calm,-,N/A,,Clear,0,2013-05-01 10:53:00
4:53 AM,19.0,16.0,88,30.49,10.0,Calm,Calm,-,N/A,,Clear,0,2013-05-01 11:53:00
5:53 AM,19.0,17.1,92,30.52,10.0,Calm,Calm,-,N/A,,Clear,0,2013-05-01 12:53:00
6:53 AM,30.0,27.0,88,30.53,10.0,ENE,3.5,-,N/A,,Clear,60,2013-05-01 13:53:00
8:53 AM,39.0,28.0,65,30.60,10.0,SW,3.5,-,N/A,,Clear,230,2013-05-01 15:53:00
9:53 AM,43.0,28.9,58,30.61,10.0,SSW,3.5,-,N/A,,Clear,200,2013-05-01 16:53:00
10:53 AM,46.9,27.0,46,30.61,10.0,SSW,5.8,-,N/A,,Clear,210,2013-05-01 17:53:00
11:53 AM,50.0,19.9,31,30.60,10.0,Variable,4.6,-,N/A,,Clear,0,2013-05-01 18:53:00
12:53 PM,53.1,23.0,31,30.59,10.0,Variable,6.9,-,N/A,,Clear,0,2013-05-01 19:53:00
1:53 PM,54.0,19.0,25,30.59,10.0,WNW,6.9,-,N/A,,Clear,300,2013-05-01 20:53:00
2:53 PM,55.0,14.0,20,30.60,10.0,WSW,4.6,-,N/A,,Clear,240,2013-05-01 21:53:00
3:53 PM,57.0,17.1,21,30.59,10.0,West,6.9,-,N/A,,Clear,270,2013-05-01 22:53:00
4:53 PM,55.9,17.1,22,30.59,10.0,WSW,6.9,-,N/A,,Clear,240,2013-05-01 23:53:00
5:53 PM,57.0,19.9,24,30.58,10.0,West,5.8,-,N/A,,Clear,260,2013-05-02 00:53:00
6:53 PM,55.9,19.0,24,30.57,10.0,SW,4.6,-,N/A,,Clear,230,2013-05-02 01:53:00
7:53 PM,51.1,21.9,32,30.57,10.0,SSW,4.6,-,N/A,,Clear,210,2013-05-02 02:53:00
8:53 PM,39.0,25.0,57,30.60,10.0,SE,3.5,-,N/A,,Clear,140,2013-05-02 03:53:00
9:53 PM,37.0,23.0,57,30.62,10.0,Calm,Calm,-,N/A,,Clear,0,2013-05-02 04:53:00
10:53 PM,36.0,21.9,57,30.62,10.0,South,3.5,-,N/A,,Clear,180,2013-05-02 05:53:00
11:53 PM,30.9,23.0,72,30.63,10.0,West,3.5,-,N/A,,Clear,280,2013-05-02 06:53:00